Summerland Sweets XC 3K

Back to 2017 XC Races

2017 XC Race

2017-10-01, Summerland, 3.2 km
# Name City Age GP CP Time Pace
1 Carter Leahy Vernon M13-15 0:12:25 03:52
2 Gage Stoll Vernon M13-15 0:12:45 03:59
3 Mitchell Bond Vernon M10-12 0:12:52 04:01
4 Brody Wright Vernon M13-15 4 0:12:59 04:03
5 Camille Galloway Kelowna F16-99+ 0:13:02 04:04
6 Jack Screen Vernon M13-15 5 4 0:13:22 04:10
7 Eric Anderson Vernon M10-12 6 0:13:26 04:11
8 Conrad Halloran Vernon M10-12 7 0:14:04 04:23
9 Alistair Martin Summerland M10-12 8 4 0:14:08 04:25
10 Maximilian Patenaude Summerland M10-12 9 5 0:15:01 04:41
11 Caitlyn Collingwood Kelowna F13-15 0:15:15 04:45
12 Emily Jell Summerland F10-12 0:15:32 04:51
13 Cai Collingwood Kelowna M01-09 10 0:15:35 04:52
14 Rowan Musselman Bell Penticton M10-12 11 6 0:15:49 04:56
15 Isla Kast Summerland F10-12 4 0:15:50 04:56
16 Casey Van Egmond Penticton M10-12 12 7 0:15:58 04:59
17 Cadence Quigley Kelowna F10-12 5 0:16:10 05:03
18 Nathan Michael Penticton M10-12 13 8 0:16:12 05:03
19 Kai Rippy Penticton M01-09 14 0:16:19 05:05
20 Jenaya Copithorne Kelowna F16-99+ 6 0:16:20 05:06
21 Olivia Courtenay Kelowna F13-15 7 0:16:21 05:06
22 Taylor Desroiser Kelowna F16-99+ 8 0:16:27 05:08
23 Paige Leahy Vernon F10-12 9 4 0:17:01 05:19
24 Dawson Bond Vernon M10-12 15 9 0:17:06 05:20
25 Kyden Hurst Penticton M01-09 16 0:17:35 05:29
26 Payton Mitchell Summerland F01-09 10 0:17:38 05:30
27 Peyton Riep Summerland F10-12 11 5 0:18:07 05:39
28 Katie Jell Summerland F01-09 12 0:18:15 05:42
29 Ayla Musselman Bell Penticton F01-09 13 0:18:48 05:52
30 Bree Cutjar Penticton F01-09 14 0:18:48 05:52
31 Danielle Cutjar Penticton F10-12 15 6 0:19:31 06:05
32 Leevi Kontkanen Penticton M10-12 17 10 0:19:32 06:06
33 Andres Aguliar Summerland M13-15 18 5 0:21:14 06:38
34 Ryan Peters Penticton M10-12 19 11 0:21:23 06:40
35 Ashley Quigley Kelowna F10-12 16 7 0:22:15 06:57
36 Hunter Bush Kelowna M01-09 20 4 0:22:25 07:00
37 Evelyn Martin Summerland F01-09 17 5 0:22:49 07:07
38 Jenny Martin Summerland F16-99+ 18 4 0:22:52 07:08
39 Paige Barton Penticton F01-09 19 6 0:22:57 07:10
40 Leah Evans Penticton F01-09 20 6 0:22:57 07:10
41 Cindy Munn Kelowna F16-99+ 21 5 0:23:05 07:12
42 Olivia Evans Penticton F01-09 22 8 0:24:18 07:35
43 Lesley Evans Penticton F16-99+ 23 6 0:24:26 07:38
44 Alicia Jell Summerland F01-09 24 9 0:24:45 07:44
45 Janine Jell Summerland F16-99+ 25 7 0:24:45 07:44
46 Emma Jerome Kelowna F01-09 26 10 0:24:46 07:44
47 Jorja Kozar Penticton F01-09 27 11 0:26:14 08:11
48 Taylor Hurst Penticton F01-09 28 12 0:26:54 08:24
49 Ann Hurst Penticton F16-99+ 29 8 0:26:54 08:24
50 Emerson Mitchell Summerland M01-09 21 5 0:26:55 08:24
51 Markus Kontkanen Penticton M01-09 22 6 0:31:32 09:51
52 Jodi Edworthy Penticton F16-99+ 30 9 0:33:00 10:18
53 Amanda Kontkanen Penticton F16-99+ 31 9 0:33:00 10:18
54 Elin Kontkanen Penticton F01-09 32 13 0:36:58 11:33
55 John Bartel Kamloops M16-99+ 23 0:38:11 11:55
56 Debra Bartel Kamloops F16-99+ 33 11 0:38:11 11:55
Missing or Incorrect Results